Flag Weather past 2 weeks in Saint Helier, Jersey, United Kingdom

Now
54 °F

Clear.


Feels Like: 49 °F
Forecast: N/A
Wind: 15 mph from South

Location: Jersey Airport

Current Time: Nov 21, 2014 at 7:20:22 PM

Latest Report: Nov 21, 2014 at 6:50 PM


Visibility: 6 mi

Pressure: 29.89 "Hg

Humidity: 94%

Dew point: 52 °F

Location of Saint HelierLocation

Historic Weather in Saint Helier — Graph

°F

Saint Helier temperature yesterday

Maximum temperature yesterday: 54 °F (at 1:50 PM)
Minimum temperature yesterday: 46 °F (at 6:20 AM)
Average temperature yesterday: 50 °F

Past Weeks' High & Low Weather Summary

 TemperatureHumidityPressure
High57 °F (Nov 7, 1:50 PM)100% (Nov 6, 8:50 PM)30.18 "Hg (Nov 6, 8:50 PM)
Low45 °F (Nov 16, 6:50 PM)67% (Nov 7, 1:50 PM)29.27 "Hg (Nov 11, 2:20 PM)
Average52 °F90%29.62 "Hg
* Reported Nov 6 6:20 PM — Nov 21 6:20 PM, Saint Helier, Weather by CustomWeather, © 2014

Note: Actual official high and low records may vary slightly from our data, if they occured in-between our weather recording intervals... More about our weather records

Advertising

Saint Helier weather history for previous 24 hours

 ConditionsComfort  
Time TempWeatherWind HumidityBarometerVisibility
6:20 PM
Nov 21
54 °FClear.15 mph94%29.89 "Hg10 mi
5:50 PM55 °FClear.17 mph94%29.89 "Hg6 mi
5:20 PM55 °FClear.16 mph94%29.89 "Hg6 mi
4:50 PM55 °FClear.13 mph94%29.89 "Hg10 mi
4:20 PM54 °FClear.17 mph94%29.89 "Hg6 mi
3:20 PM54 °FClear.15 mph94%29.89 "Hg6 mi
2:50 PM54 °FPassing clouds.14 mph94%29.89 "Hg6 mi
2:20 PM54 °FClear.22 mph94%29.89 "Hg6 mi
1:50 PM54 °FPassing clouds.21 mph94%29.92 "Hg4 mi
1:20 PM52 °FPassing clouds.20 mph100%29.92 "Hg4 mi
12:50 PM52 °FScattered clouds.18 mph94%29.92 "Hg4 mi
12:20 PM50 °FPartly sunny.18 mph100%29.95 "Hg4 mi
11:50 AM50 °FPassing clouds.18 mph100%29.95 "Hg4 mi
11:20 AM52 °FScattered clouds.16 mph94%29.98 "Hg4 mi
10:50 AM50 °FPartly sunny.14 mph100%29.98 "Hg4 mi
10:20 AM50 °FRain. Scattered clouds.14 mph94%30.01 "Hg4 mi
9:50 AM50 °FLight rain. Passing clouds.14 mph94%30.01 "Hg4 mi
9:20 AM50 °FRain. Passing clouds.17 mph94%30.01 "Hg4 mi
8:50 AM50 °FLight rain. Passing clouds.18 mph94%30.01 "Hg4 mi
8:20 AM50 °FPassing clouds.18 mph94%30.01 "Hg4 mi
7:50 AM50 °FScattered clouds.15 mph94%30.01 "Hg4 mi
7:20 AM50 °FPassing clouds.10 mph94%30.01 "Hg5 mi
6:50 AM48 °FLight rain. Passing clouds.13 mph100%30.01 "Hg6 mi
6:20 AM48 °FPassing clouds.14 mph100%30.01 "Hg6 mi
5:50 AM48 °FPassing clouds.12 mph100%30.01 "Hg6 mi
5:20 AM48 °FPassing clouds.10 mph94%30.01 "Hg6 mi
4:50 AM46 °FPassing clouds.12 mph100%30.01 "Hg6 mi
4:20 AM46 °FPassing clouds.10 mph100%30.04 "Hg6 mi
3:50 AM45 °FPassing clouds.8 mph100%30.04 "HgN/A
8:50 PM
Nov 20
50 °FPassing clouds.15 mph88%30.09 "HgN/A
8:20 PM50 °FPassing clouds.12 mph88%30.12 "HgN/A
7:20 PM50 °FPassing clouds.16 mph88%30.12 "HgN/A
Weather by CustomWeather, © 2014

See weather overviewHow to use our weather pages